Time,TemperatureF,DewpointF,PressureIn,WindDirection,WindDirectionDegrees,WindSpeedMPH,WindSpeedGustMPH,Humidity,HourlyPrecipIn,Conditions,Clouds,dailyrainin,SoftwareType,DateUTC
2013-11-04 00:01:00,49.4,44.1,29.87,WSW,243,0.0,0.0,82,0.00,CLR,,0.00,WeatherDisplay:10.37,2013-11-04 08:01:00,
2013-11-04 00:06:00,49.4,44.1,29.86,WSW,243,0.0,0.0,82,0.00,CLR,,0.00,WeatherDisplay:10.37,2013-11-04 08:06:00,
2013-11-04 00:11:00,49.4,44.1,29.86,WSW,243,0.0,0.0,82,0.00,CLR,,0.00,WeatherDisplay:10.37,2013-11-04 08:11:00,
2013-11-04 00:16:00,49.3,44.0,29.87,WSW,243,0.0,0.0,82,0.00,CLR,,0.00,WeatherDisplay:10.37,2013-11-04 08:16:00,
2013-11-04 00:21:00,49.4,44.1,29.86,WSW,243,0.0,0.0,82,0.00,CLR,,0.00,WeatherDisplay:10.37,2013-11-04 08:21:00,
2013-11-04 00:26:00,49.3,44.0,29.86,WSW,243,0.0,0.0,82,0.00,CLR,,0.00,WeatherDisplay:10.37,2013-11-04 08:26:00,
2013-11-04 00:31:00,49.3,44.4,29.86,WSW,243,0.0,0.0,83,0.00,CLR,,0.00,WeatherDisplay:10.37,2013-11-04 08:31:00,
2013-11-04 00:36:00,49.3,44.4,29.86,WSW,243,0.0,0.0,83,0.00,CLR,,0.00,WeatherDisplay:10.37,2013-11-04 08:36:00,
2013-11-04 00:41:00,49.3,44.0,29.86,WSW,243,0.0,0.0,82,0.00,CLR,,0.00,WeatherDisplay:10.37,2013-11-04 08:41:00,
2013-11-04 00:46:00,49.3,44.0,29.87,WSW,243,0.0,0.0,82,0.00,CLR,,0.00,WeatherDisplay:10.37,2013-11-04 08:46:00,
2013-11-04 00:51:00,49.4,44.1,29.87,WSW,243,0.0,0.0,82,0.00,CLR,,0.00,WeatherDisplay:10.37,2013-11-04 08:51:00,
2013-11-04 00:56:00,49.4,44.1,29.87,WSW,243,0.0,0.0,82,0.00,CLR,,0.00,WeatherDisplay:10.37,2013-11-04 08:56:00,
2013-11-04 01:01:00,49.4,43.8,29.87,WSW,243,0.0,0.0,81,0.00,CLR,,0.00,WeatherDisplay:10.37,2013-11-04 09:01:00,
2013-11-04 01:06:00,49.3,43.7,29.87,WSW,243,0.0,0.0,81,0.00,CLR,,0.00,WeatherDisplay:10.37,2013-11-04 09:06:00,
2013-11-04 01:11:00,49.3,43.7,29.87,WSW,243,0.0,0.0,81,0.00,CLR,,0.00,WeatherDisplay:10.37,2013-11-04 09:11:00,
2013-11-04 01:16:00,49.3,43.7,29.87,WSW,243,0.0,0.0,81,0.00,CLR,,0.00,WeatherDisplay:10.37,2013-11-04 09:16:00,
2013-11-04 01:21:00,49.2,43.6,29.87,WSW,243,0.0,0.0,81,0.00,CLR,,0.00,WeatherDisplay:10.37,2013-11-04 09:21:00,
2013-11-04 01:26:00,49.2,43.6,29.87,WSW,243,0.0,0.0,81,0.00,CLR,,0.00,WeatherDisplay:10.37,2013-11-04 09:26:00,
2013-11-04 01:31:00,49.3,43.7,29.87,WSW,243,0.0,0.0,81,0.00,CLR,,0.00,WeatherDisplay:10.37,2013-11-04 09:31:00,
2013-11-04 01:36:00,49.3,43.7,29.87,WSW,243,0.0,0.0,81,0.00,CLR,,0.00,WeatherDisplay:10.37,2013-11-04 09:36:00,
2013-11-04 01:41:00,49.2,43.6,29.87,WSW,243,0.0,0.0,81,0.00,CLR,,0.00,WeatherDisplay:10.37,2013-11-04 09:41:00,
2013-11-04 01:46:00,49.2,43.6,29.87,WSW,243,0.0,0.0,81,0.00,CLR,,0.00,WeatherDisplay:10.37,2013-11-04 09:46:00,
2013-11-04 01:51:00,49.1,43.5,29.87,WSW,243,0.0,0.0,81,0.00,CLR,,0.00,WeatherDisplay:10.37,2013-11-04 09:51:00,
2013-11-04 01:56:00,49.1,43.5,29.87,WSW,243,0.0,0.0,81,0.00,CLR,,0.00,WeatherDisplay:10.37,2013-11-04 09:56:00,
2013-11-04 02:01:00,49.0,43.4,29.87,WSW,243,0.0,0.0,81,0.00,CLR,,0.00,WeatherDisplay:10.37,2013-11-04 10:01:00,
2013-11-04 02:06:00,49.0,43.4,29.87,WSW,243,0.0,0.0,81,0.00,CLR,,0.00,WeatherDisplay:10.37,2013-11-04 10:06:00,
2013-11-04 02:11:00,49.1,43.5,29.87,WSW,243,0.0,0.0,81,0.00,CLR,,0.00,WeatherDisplay:10.37,2013-11-04 10:11:00,
2013-11-04 02:16:00,49.1,43.5,29.87,WSW,243,0.0,0.0,81,0.00,CLR,,0.00,WeatherDisplay:10.37,2013-11-04 10:16:00,
2013-11-04 02:21:00,49.1,43.2,29.87,WSW,243,0.0,0.0,80,0.00,CLR,,0.00,WeatherDisplay:10.37,2013-11-04 10:21:00,
2013-11-04 02:26:00,49.1,43.5,29.87,WSW,243,0.0,0.0,81,0.00,CLR,,0.00,WeatherDisplay:10.37,2013-11-04 10:26:00,
2013-11-04 02:31:00,49.1,43.5,29.87,WSW,243,0.0,0.0,81,0.00,CLR,,0.00,WeatherDisplay:10.37,2013-11-04 10:31:00,
2013-11-04 02:36:00,49.0,43.1,29.87,WSW,243,0.0,0.0,80,0.00,CLR,,0.00,WeatherDisplay:10.37,2013-11-04 10:36:00,
2013-11-04 02:41:00,49.1,43.2,29.88,WSW,243,0.0,0.0,80,0.00,CLR,,0.00,WeatherDisplay:10.37,2013-11-04 10:41:00,
2013-11-04 02:46:00,49.1,43.2,29.88,WSW,243,0.0,0.0,80,0.00,CLR,,0.00,WeatherDisplay:10.37,2013-11-04 10:46:00,
2013-11-04 02:51:00,49.2,43.3,29.88,WSW,243,0.0,0.0,80,0.00,CLR,,0.00,WeatherDisplay:10.37,2013-11-04 10:51:00,
2013-11-04 02:56:00,49.3,43.4,29.88,WSW,243,0.0,0.0,80,0.00,CLR,,0.00,WeatherDisplay:10.37,2013-11-04 10:56:00,
2013-11-04 03:01:00,49.5,43.6,29.88,WSW,243,0.0,0.0,80,0.00,OVC,,0.00,WeatherDisplay:10.37,2013-11-04 11:01:00,
2013-11-04 03:06:00,49.6,43.7,29.88,WSW,243,0.0,0.0,80,0.00,OVC,,0.00,WeatherDisplay:10.37,2013-11-04 11:06:00,
2013-11-04 03:11:00,49.8,43.9,29.88,WSW,243,0.0,0.0,80,0.00,OVC,,0.00,WeatherDisplay:10.37,2013-11-04 11:11:00,
2013-11-04 03:14:00,49.9,44.0,29.88,WSW,243,0.0,0.0,80,0.00,OVC,,0.00,WeatherDisplay:10.37,2013-11-04 11:14:00,
2013-11-04 03:19:00,50.0,43.7,29.88,South,184,0.0,0.0,79,0.00,OVC,,0.00,WeatherDisplay:10.37,2013-11-04 11:19:00,
2013-11-04 03:22:00,50.0,43.4,29.88,South,184,0.0,0.0,78,0.00,OVC,,0.00,WeatherDisplay:10.37,2013-11-04 11:22:00,
2013-11-04 03:27:00,50.1,43.5,29.87,South,184,0.0,0.0,78,0.00,OVC,,0.00,WeatherDisplay:10.37,2013-11-04 11:27:00,
2013-11-04 03:32:00,50.1,43.5,29.88,South,184,0.0,0.0,78,0.00,OVC,,0.00,WeatherDisplay:10.37,2013-11-04 11:32:00,
2013-11-04 03:37:00,50.1,43.5,29.88,South,184,0.0,0.0,78,0.00,OVC,,0.00,WeatherDisplay:10.37,2013-11-04 11:37:00,
2013-11-04 03:42:00,50.1,43.2,29.87,South,184,0.0,0.0,77,0.00,OVC,,0.00,WeatherDisplay:10.37,2013-11-04 11:42:00,
2013-11-04 03:47:00,50.0,42.7,29.87,South,184,0.0,0.0,76,0.00,OVC,,0.00,WeatherDisplay:10.37,2013-11-04 11:47:00,
2013-11-04 03:52:00,50.0,42.7,29.87,South,185,0.0,0.0,76,0.00,OVC,,0.00,WeatherDisplay:10.37,2013-11-04 11:52:00,
2013-11-04 03:57:00,49.9,42.6,29.87,South,185,0.0,0.0,76,0.00,OVC,,0.00,WeatherDisplay:10.37,2013-11-04 11:57:00,
2013-11-04 04:02:00,49.9,42.6,29.87,South,184,0.0,0.0,76,0.00,OVC,,0.00,WeatherDisplay:10.37,2013-11-04 12:02:00,
2013-11-04 04:07:00,49.9,42.6,29.86,South,184,0.0,0.0,76,0.00,OVC,,0.00,WeatherDisplay:10.37,2013-11-04 12:07:00,
2013-11-04 04:12:00,50.0,42.7,29.86,South,184,0.0,0.0,76,0.00,OVC,,0.00,WeatherDisplay:10.37,2013-11-04 12:12:00,
2013-11-04 04:17:00,50.0,42.7,29.86,South,184,0.0,0.0,76,0.00,OVC,,0.00,WeatherDisplay:10.37,2013-11-04 12:17:00,
2013-11-04 04:22:00,50.0,42.7,29.87,South,184,0.0,0.0,76,0.00,OVC,,0.00,WeatherDisplay:10.37,2013-11-04 12:22:00,
2013-11-04 04:27:00,49.9,42.3,29.87,South,185,0.0,0.0,75,0.00,OVC,,0.00,WeatherDisplay:10.37,2013-11-04 12:27:00,
2013-11-04 04:32:00,49.9,42.3,29.87,South,184,0.0,0.0,75,0.00,OVC,,0.00,WeatherDisplay:10.37,2013-11-04 12:32:00,
2013-11-04 04:37:00,49.7,42.1,29.87,South,184,0.0,0.0,75,0.00,OVC,,0.00,WeatherDisplay:10.37,2013-11-04 12:37:00,
2013-11-04 04:42:00,49.4,42.1,29.87,South,184,0.0,0.0,76,0.00,OVC,,0.00,WeatherDisplay:10.37,2013-11-04 12:42:00,
2013-11-04 04:47:00,49.1,41.9,29.87,South,184,0.0,0.0,76,0.00,OVC,,0.00,WeatherDisplay:10.37,2013-11-04 12:47:00,
2013-11-04 04:52:00,48.7,41.5,29.87,South,184,0.0,0.0,76,0.00,OVC,,0.00,WeatherDisplay:10.37,2013-11-04 12:52:00,
2013-11-04 04:57:00,48.4,41.5,29.87,South,184,0.0,0.0,77,0.00,OVC,,0.00,WeatherDisplay:10.37,2013-11-04 12:57:00,
2013-11-04 05:02:00,48.1,40.9,29.87,South,185,0.0,0.0,76,0.00,OVC,,0.00,WeatherDisplay:10.37,2013-11-04 13:02:00,
2013-11-04 05:07:00,47.8,40.6,29.87,South,184,0.0,0.0,76,0.00,OVC,,0.00,WeatherDisplay:10.37,2013-11-04 13:07:00,
2013-11-04 05:12:00,47.5,40.3,29.87,South,184,0.0,0.0,76,0.00,OVC,,0.00,WeatherDisplay:10.37,2013-11-04 13:12:00,
2013-11-04 05:17:00,47.3,40.1,29.87,South,185,0.0,0.0,76,0.00,OVC,,0.00,WeatherDisplay:10.37,2013-11-04 13:17:00,
2013-11-04 05:22:00,47.0,39.8,29.87,South,185,0.0,0.0,76,0.00,OVC,,0.00,WeatherDisplay:10.37,2013-11-04 13:22:00,
2013-11-04 05:27:00,46.7,39.9,29.88,South,184,0.0,0.0,77,0.00,OVC,,0.00,WeatherDisplay:10.37,2013-11-04 13:27:00,
2013-11-04 05:32:00,46.3,39.8,29.88,South,184,0.0,0.0,78,0.00,SCT,,0.00,WeatherDisplay:10.37,2013-11-04 13:32:00,
2013-11-04 05:37:00,46.0,39.5,29.89,South,184,0.0,0.0,78,0.00,SCT,,0.00,WeatherDisplay:10.37,2013-11-04 13:37:00,
2013-11-04 05:42:00,45.9,39.4,29.88,South,184,0.0,0.0,78,0.00,SCT,,0.00,WeatherDisplay:10.37,2013-11-04 13:42:00,
2013-11-04 05:47:00,45.7,39.6,29.89,South,184,0.0,0.0,79,0.00,FEW,,0.00,WeatherDisplay:10.37,2013-11-04 13:47:00,
2013-11-04 05:52:00,45.6,39.5,29.89,South,184,0.0,0.0,79,0.00,FEW,,0.00,WeatherDisplay:10.37,2013-11-04 13:52:00,
2013-11-04 05:57:00,45.3,39.2,29.89,South,184,0.0,0.0,79,0.00,FEW,,0.00,WeatherDisplay:10.37,2013-11-04 13:57:00,
2013-11-04 06:02:00,45.0,38.9,29.90,South,184,0.0,0.0,79,0.00,SCT,,0.00,WeatherDisplay:10.37,2013-11-04 14:02:00,
2013-11-04 06:07:00,44.8,38.7,29.90,South,184,0.0,0.0,79,0.00,SCT,,0.00,WeatherDisplay:10.37,2013-11-04 14:07:00,
2013-11-04 06:12:00,44.6,38.8,29.90,South,184,0.0,0.0,80,0.00,SCT,,0.00,WeatherDisplay:10.37,2013-11-04 14:12:00,
2013-11-04 06:17:00,44.4,38.6,29.90,South,184,0.0,0.0,80,0.00,SCT,,0.00,WeatherDisplay:10.37,2013-11-04 14:17:00,
2013-11-04 06:22:00,44.5,39.3,29.90,South,184,0.0,0.0,82,0.00,SCT,,0.00,WeatherDisplay:10.37,2013-11-04 14:22:00,
2013-11-04 06:27:00,44.8,39.6,29.90,South,184,0.0,0.0,82,0.00,SCT,,0.00,WeatherDisplay:10.37,2013-11-04 14:27:00,
2013-11-04 06:32:00,45.1,39.6,29.90,South,185,0.0,0.0,81,0.00,BKN,,0.00,WeatherDisplay:10.37,2013-11-04 14:32:00,
2013-11-04 06:37:00,45.3,39.5,29.91,South,184,0.0,0.0,80,0.00,BKN,,0.00,WeatherDisplay:10.37,2013-11-04 14:37:00,
2013-11-04 06:42:00,45.3,39.5,29.91,South,184,0.0,0.0,80,0.00,BKN,,0.00,WeatherDisplay:10.37,2013-11-04 14:42:00,
2013-11-04 06:47:00,45.3,39.2,29.91,South,184,0.0,0.0,79,0.00,BKN,,0.00,WeatherDisplay:10.37,2013-11-04 14:47:00,
2013-11-04 06:52:00,45.3,39.2,29.92,South,184,0.0,0.0,79,0.00,BKN,,0.00,WeatherDisplay:10.37,2013-11-04 14:52:00,
2013-11-04 06:57:00,45.3,39.2,29.92,South,184,0.0,0.0,79,0.00,BKN,,0.00,WeatherDisplay:10.37,2013-11-04 14:57:00,
2013-11-04 07:02:00,45.3,39.2,29.92,South,185,0.0,0.0,79,0.00,BKN,,0.00,WeatherDisplay:10.37,2013-11-04 15:02:00,
2013-11-04 07:07:00,45.4,39.3,29.92,South,184,0.0,0.0,79,0.00,BKN,,0.00,WeatherDisplay:10.37,2013-11-04 15:07:00,
2013-11-04 07:12:00,45.7,38.9,29.93,South,185,0.0,0.0,77,0.00,BKN,,0.00,WeatherDisplay:10.37,2013-11-04 15:12:00,
2013-11-04 07:17:00,45.9,39.4,29.93,South,184,0.0,0.0,78,0.00,BKN,,0.00,WeatherDisplay:10.37,2013-11-04 15:17:00,
2013-11-04 07:22:00,46.1,39.0,29.93,South,184,0.0,0.0,76,0.00,BKN,,0.00,WeatherDisplay:10.37,2013-11-04 15:22:00,
2013-11-04 07:27:00,46.2,39.4,29.93,South,184,0.0,0.0,77,0.00,BKN,,0.00,WeatherDisplay:10.37,2013-11-04 15:27:00,
2013-11-04 07:32:00,46.3,38.5,29.93,South,184,0.0,0.0,74,0.00,OVC,,0.00,WeatherDisplay:10.37,2013-11-04 15:32:00,
2013-11-04 07:37:00,46.5,38.7,29.94,South,184,0.0,0.0,74,0.00,OVC,,0.00,WeatherDisplay:10.37,2013-11-04 15:37:00,
2013-11-04 07:42:00,46.8,38.6,29.95,South,184,0.0,0.0,73,0.00,OVC,,0.00,WeatherDisplay:10.37,2013-11-04 15:42:00,
2013-11-04 07:47:00,47.1,38.5,29.95,South,184,0.0,0.0,72,0.00,OVC,,0.00,WeatherDisplay:10.37,2013-11-04 15:47:00,
2013-11-04 07:52:00,47.3,38.4,29.95,South,184,0.0,0.0,71,0.00,OVC,,0.00,WeatherDisplay:10.37,2013-11-04 15:52:00,
2013-11-04 07:57:00,47.6,38.7,29.95,South,184,0.0,0.0,71,0.00,OVC,,0.00,WeatherDisplay:10.37,2013-11-04 15:57:00,
2013-11-04 08:02:00,47.9,38.9,29.95,South,184,0.0,0.0,71,0.00,SCT,,0.00,WeatherDisplay:10.37,2013-11-04 16:02:00,
2013-11-04 08:07:00,48.3,38.2,29.95,South,184,0.0,0.0,68,0.00,SCT,,0.00,WeatherDisplay:10.37,2013-11-04 16:07:00,
2013-11-04 08:12:00,48.9,38.8,29.95,South,184,0.0,0.0,68,0.00,SCT,,0.00,WeatherDisplay:10.37,2013-11-04 16:12:00,
2013-11-04 08:17:00,49.3,38.0,29.96,South,187,0.0,0.0,65,0.00,SCT,,0.00,WeatherDisplay:10.37,2013-11-04 16:17:00,
2013-11-04 08:22:00,49.9,38.6,29.96,South,187,0.0,0.0,65,0.00,SCT,,0.00,WeatherDisplay:10.37,2013-11-04 16:22:00,
2013-11-04 08:27:00,50.3,37.4,29.97,South,187,0.0,0.0,61,0.00,SCT,,0.00,WeatherDisplay:10.37,2013-11-04 16:27:00,
2013-11-04 08:32:00,50.8,38.2,29.97,WNW,285,0.0,0.0,62,0.00,BKN,,0.00,WeatherDisplay:10.37,2013-11-04 16:32:00,
2013-11-04 08:37:00,51.1,37.7,29.97,West,266,1.2,0.0,60,0.00,BKN,,0.00,WeatherDisplay:10.37,2013-11-04 16:37:00,
2013-11-04 08:42:00,51.5,37.6,29.97,SSW,204,0.0,0.0,59,0.00,BKN,,0.00,WeatherDisplay:10.37,2013-11-04 16:42:00,
2013-11-04 08:47:00,51.8,37.9,29.97,WSW,252,0.0,0.0,59,0.00,OVC,,0.00,WeatherDisplay:10.37,2013-11-04 16:47:00,
2013-11-04 08:52:00,52.0,37.7,29.97,WSW,255,0.0,0.0,58,0.00,OVC,,0.00,WeatherDisplay:10.37,2013-11-04 16:52:00,
2013-11-04 08:57:00,52.2,37.9,29.97,WSW,254,0.0,0.0,58,0.00,OVC,,0.00,WeatherDisplay:10.37,2013-11-04 16:57:00,
2013-11-04 09:02:00,52.3,38.0,29.97,WSW,255,0.0,0.0,58,0.00,OVC,,0.00,WeatherDisplay:10.37,2013-11-04 17:02:00,
2013-11-04 09:07:00,52.4,37.2,29.97,WSW,255,0.0,0.0,56,0.00,OVC,,0.00,WeatherDisplay:10.37,2013-11-04 17:07:00,
2013-11-04 09:12:00,52.4,37.2,29.97,WSW,255,0.0,0.0,56,0.00,OVC,,0.00,WeatherDisplay:10.37,2013-11-04 17:12:00,
2013-11-04 09:17:00,52.5,38.6,29.96,WSW,255,0.0,0.0,59,0.00,OVC,,0.00,WeatherDisplay:10.37,2013-11-04 17:17:00,
2013-11-04 09:22:00,52.6,38.7,29.96,SSE,165,0.0,0.0,59,0.00,OVC,,0.00,WeatherDisplay:10.37,2013-11-04 17:22:00,
2013-11-04 09:27:00,52.6,38.7,29.96,SSE,165,0.0,0.0,59,0.00,OVC,,0.00,WeatherDisplay:10.37,2013-11-04 17:27:00,
2013-11-04 09:32:00,52.8,38.0,29.96,SE,129,0.0,0.0,57,0.00,OVC,,0.00,WeatherDisplay:10.37,2013-11-04 17:32:00,
2013-11-04 09:37:00,52.9,38.1,29.96,WSW,246,1.2,0.0,57,0.00,OVC,,0.00,WeatherDisplay:10.37,2013-11-04 17:37:00,
2013-11-04 09:42:00,53.3,38.9,29.96,SSE,154,0.0,0.0,58,0.00,OVC,,0.00,WeatherDisplay:10.37,2013-11-04 17:42:00,
2013-11-04 09:47:00,53.7,38.4,29.95,ESE,112,0.0,0.0,56,0.00,OVC,,0.00,WeatherDisplay:10.37,2013-11-04 17:47:00,
2013-11-04 09:52:00,54.2,39.3,29.95,SSW,210,0.0,0.0,57,0.00,OVC,,0.00,WeatherDisplay:10.37,2013-11-04 17:52:00,
2013-11-04 09:57:00,54.6,38.3,29.96,SE,126,1.2,1.2,54,0.00,OVC,,0.00,WeatherDisplay:10.37,2013-11-04 17:57:00,
2013-11-04 10:02:00,54.9,38.1,29.95,SE,130,0.0,0.0,53,0.00,OVC,,0.00,WeatherDisplay:10.37,2013-11-04 18:02:00,
2013-11-04 10:07:00,55.3,38.4,29.95,SE,126,1.2,1.2,53,0.00,OVC,,0.00,WeatherDisplay:10.37,2013-11-04 18:07:00,
2013-11-04 10:12:00,55.7,38.3,29.95,WSW,247,0.0,0.0,52,0.00,OVC,,0.00,WeatherDisplay:10.37,2013-11-04 18:12:00,
2013-11-04 10:17:00,56.0,38.1,29.95,WSW,247,1.2,1.2,51,0.00,FEW,,0.00,WeatherDisplay:10.37,2013-11-04 18:17:00,
2013-11-04 10:22:00,56.3,38.4,29.95,SE,139,1.2,1.2,51,0.00,FEW,,0.00,WeatherDisplay:10.37,2013-11-04 18:22:00,
2013-11-04 10:27:00,56.8,38.3,29.95,SE,134,1.2,1.2,50,0.00,FEW,,0.00,WeatherDisplay:10.37,2013-11-04 18:27:00,
2013-11-04 10:32:00,57.1,38.1,29.95,SSW,197,2.3,2.3,49,0.00,CLR,,0.00,WeatherDisplay:10.37,2013-11-04 18:32:00,
2013-11-04 10:37:00,57.3,38.3,29.95,West,277,1.0,0.0,49,0.00,CLR,,0.00,WeatherDisplay:10.37,2013-11-04 18:37:00,
2013-11-04 10:42:00,57.4,37.9,29.95,SE,125,1.2,1.2,48,0.00,CLR,,0.00,WeatherDisplay:10.37,2013-11-04 18:42:00,
2013-11-04 10:47:00,57.6,37.5,29.95,WSW,243,1.2,1.2,47,0.00,CLR,,0.00,WeatherDisplay:10.37,2013-11-04 18:47:00,
2013-11-04 10:52:00,57.8,37.7,29.95,SE,129,0.0,0.0,47,0.00,CLR,,0.00,WeatherDisplay:10.37,2013-11-04 18:52:00,
2013-11-04 10:57:00,58.2,37.5,29.94,South,181,1.2,1.2,46,0.00,CLR,,0.00,WeatherDisplay:10.37,2013-11-04 18:57:00,
2013-11-04 11:02:00,58.3,37.0,29.94,SE,128,2.3,2.3,45,0.00,CLR,,0.00,WeatherDisplay:10.37,2013-11-04 19:02:00,
2013-11-04 11:07:00,58.6,37.3,29.94,ESE,123,0.0,0.0,45,0.00,CLR,,0.00,WeatherDisplay:10.37,2013-11-04 19:07:00,
2013-11-04 11:12:00,59.0,37.1,29.94,East,97,1.2,0.0,44,0.00,CLR,,0.00,WeatherDisplay:10.37,2013-11-04 19:12:00,
2013-11-04 11:17:00,59.1,37.2,29.94,South,174,1.2,1.2,44,0.00,CLR,,0.00,WeatherDisplay:10.37,2013-11-04 19:17:00,
2013-11-04 11:22:00,59.3,36.2,29.94,SW,224,1.2,1.2,42,0.00,CLR,,0.00,WeatherDisplay:10.37,2013-11-04 19:22:00,
2013-11-04 11:27:00,59.7,37.2,29.94,East,84,1.2,1.2,43,0.00,CLR,,0.00,WeatherDisplay:10.37,2013-11-04 19:27:00,
2013-11-04 11:32:00,59.7,35.9,29.93,West,263,1.2,1.2,41,0.00,CLR,,0.00,WeatherDisplay:10.37,2013-11-04 19:32:00,
2013-11-04 11:37:00,59.9,36.7,29.93,SSE,160,0.0,0.0,42,0.00,CLR,,0.00,WeatherDisplay:10.37,2013-11-04 19:37:00,
2013-11-04 11:42:00,60.3,36.5,29.93,West,266,0.0,0.0,41,0.00,CLR,,0.00,WeatherDisplay:10.37,2013-11-04 19:42:00,
2013-11-04 11:47:00,60.5,37.3,29.93,West,266,0.0,0.0,42,0.00,CLR,,0.00,WeatherDisplay:10.37,2013-11-04 19:47:00,
2013-11-04 11:52:00,61.1,37.2,29.93,SW,215,1.2,1.2,41,0.00,CLR,,0.00,WeatherDisplay:10.37,2013-11-04 19:52:00,
2013-11-04 11:57:00,61.1,37.2,29.92,WSW,249,0.0,0.0,41,0.00,CLR,,0.00,WeatherDisplay:10.37,2013-11-04 19:57:00,
2013-11-04 12:02:00,61.3,36.8,29.92,SW,215,2.3,2.3,40,0.00,CLR,,0.00,WeatherDisplay:10.37,2013-11-04 20:02:00,
2013-11-04 12:07:00,61.7,37.1,29.92,WSW,243,1.2,0.0,40,0.00,CLR,,0.00,WeatherDisplay:10.37,2013-11-04 20:07:00,
2013-11-04 12:12:00,62.2,36.9,29.92,South,176,1.2,0.0,39,0.00,CLR,,0.00,WeatherDisplay:10.37,2013-11-04 20:12:00,
2013-11-04 12:17:00,62.4,37.7,29.92,West,264,1.2,0.0,40,0.00,CLR,,0.00,WeatherDisplay:10.37,2013-11-04 20:17:00,
2013-11-04 12:22:00,62.8,37.5,29.92,WNW,283,2.3,2.3,39,0.00,CLR,,0.00,WeatherDisplay:10.37,2013-11-04 20:22:00,
2013-11-04 12:27:00,63.3,37.2,29.92,WSW,243,0.0,0.0,38,0.00,CLR,,0.00,WeatherDisplay:10.37,2013-11-04 20:27:00,
2013-11-04 12:32:00,63.7,37.6,29.92,West,274,2.0,2.0,38,0.00,BKN,,0.00,WeatherDisplay:10.37,2013-11-04 20:32:00,
2013-11-04 12:37:00,63.6,36.8,29.91,SSW,197,1.2,1.2,37,0.00,BKN,,0.00,WeatherDisplay:10.37,2013-11-04 20:37:00,
2013-11-04 12:42:00,63.5,37.4,29.91,SSE,148,0.0,0.0,38,0.00,BKN,,0.00,WeatherDisplay:10.37,2013-11-04 20:42:00,
2013-11-04 12:47:00,63.5,38.1,29.91,SSW,212,1.2,1.2,39,0.00,BKN,,0.00,WeatherDisplay:10.37,2013-11-04 20:47:00,
2013-11-04 12:52:00,63.7,36.9,29.91,SE,134,1.2,1.2,37,0.00,BKN,,0.00,WeatherDisplay:10.37,2013-11-04 20:52:00,
2013-11-04 12:57:00,63.7,36.9,29.91,East,101,1.2,1.2,37,0.00,BKN,,0.00,WeatherDisplay:10.37,2013-11-04 20:57:00,
2013-11-04 13:02:00,63.9,37.1,29.91,WSW,257,1.2,1.2,37,0.00,OVC,,0.00,WeatherDisplay:10.37,2013-11-04 21:02:00,
2013-11-04 13:07:00,64.1,38.0,29.91,SE,145,1.2,1.2,38,0.00,OVC,,0.00,WeatherDisplay:10.37,2013-11-04 21:07:00,
2013-11-04 13:12:00,64.1,37.3,29.91,SE,126,1.2,1.2,37,0.00,OVC,,0.00,WeatherDisplay:10.37,2013-11-04 21:12:00,
2013-11-04 13:17:00,64.3,36.8,29.91,SSW,210,0.0,0.0,36,0.00,OVC,,0.00,WeatherDisplay:10.37,2013-11-04 21:17:00,
2013-11-04 13:22:00,64.7,38.5,29.91,SW,235,0.0,0.0,38,0.00,OVC,,0.00,WeatherDisplay:10.37,2013-11-04 21:22:00,
2013-11-04 13:27:00,65.0,36.7,29.90,WSW,253,3.5,3.5,35,0.00,OVC,,0.00,WeatherDisplay:10.37,2013-11-04 21:27:00,
2013-11-04 13:32:00,65.0,38.1,29.90,NNW,345,0.0,0.1,37,0.00,FEW,,0.00,WeatherDisplay:10.37,2013-11-04 21:32:00,
2013-11-04 13:37:00,65.4,36.3,29.90,SSW,207,1.2,0.0,34,0.00,FEW,,0.00,WeatherDisplay:10.37,2013-11-04 21:37:00,
2013-11-04 13:42:00,65.3,36.2,29.90,West,274,2.3,2.3,34,0.00,FEW,,0.00,WeatherDisplay:10.37,2013-11-04 21:42:00,
2013-11-04 13:47:00,65.3,36.9,29.90,North,358,2.0,2.0,35,0.00,CLR,,0.00,WeatherDisplay:10.37,2013-11-04 21:47:00,
2013-11-04 13:52:00,65.2,36.1,29.90,SSW,204,2.3,2.3,34,0.00,CLR,,0.00,WeatherDisplay:10.37,2013-11-04 21:52:00,
2013-11-04 13:57:00,65.1,36.8,29.91,West,280,1.2,1.2,35,0.00,CLR,,0.00,WeatherDisplay:10.37,2013-11-04 21:57:00,
2013-11-04 14:02:00,65.2,36.1,29.91,SW,234,1.2,1.2,34,0.00,CLR,,0.00,WeatherDisplay:10.37,2013-11-04 22:02:00,
2013-11-04 14:07:00,65.3,36.9,29.91,North,357,3.5,3.5,35,0.00,CLR,,0.00,WeatherDisplay:10.37,2013-11-04 22:07:00,
2013-11-04 14:12:00,65.5,36.4,29.91,WNW,285,2.3,2.3,34,0.00,CLR,,0.00,WeatherDisplay:10.37,2013-11-04 22:12:00,
2013-11-04 14:17:00,65.5,36.4,29.91,West,281,1.2,1.2,34,0.00,CLR,,0.00,WeatherDisplay:10.37,2013-11-04 22:17:00,
2013-11-04 14:22:00,65.4,36.3,29.91,NNW,330,0.0,0.2,34,0.00,CLR,,0.00,WeatherDisplay:10.37,2013-11-04 22:22:00,
2013-11-04 14:27:00,65.0,35.9,29.91,West,262,1.2,0.0,34,0.00,CLR,,0.00,WeatherDisplay:10.37,2013-11-04 22:27:00,
2013-11-04 14:32:00,64.7,35.7,29.92,WSW,243,1.2,0.0,34,0.00,CLR,,0.00,WeatherDisplay:10.37,2013-11-04 22:32:00,
2013-11-04 14:37:00,64.9,37.3,29.92,SW,214,1.0,0.0,36,0.00,CLR,,0.00,WeatherDisplay:10.37,2013-11-04 22:37:00,
2013-11-04 14:42:00,65.2,36.1,29.92,WSW,255,0.0,0.0,34,0.00,CLR,,0.00,WeatherDisplay:10.37,2013-11-04 22:42:00,
2013-11-04 14:47:00,64.7,36.4,29.92,North,359,2.0,2.0,35,0.00,CLR,,0.00,WeatherDisplay:10.37,2013-11-04 22:47:00,
2013-11-04 14:52:00,64.6,37.0,29.91,NNW,339,0.0,0.0,36,0.00,CLR,,0.00,WeatherDisplay:10.37,2013-11-04 22:52:00,
2013-11-04 14:57:00,64.5,36.9,29.92,NNW,330,1.2,1.2,36,0.00,CLR,,0.00,WeatherDisplay:10.37,2013-11-04 22:57:00,
2013-11-04 15:02:00,64.7,38.5,29.91,WSW,252,0.0,0.0,38,0.00,CLR,,0.00,WeatherDisplay:10.37,2013-11-04 23:02:00,
2013-11-04 15:07:00,64.9,38.7,29.91,SSE,166,0.0,0.0,38,0.00,CLR,,0.00,WeatherDisplay:10.37,2013-11-04 23:07:00,
2013-11-04 15:12:00,64.8,36.5,29.91,South,179,0.0,0.0,35,0.00,CLR,,0.00,WeatherDisplay:10.37,2013-11-04 23:12:00,
2013-11-04 15:17:00,64.6,38.4,29.91,South,179,0.0,0.0,38,0.00,CLR,,0.00,WeatherDisplay:10.37,2013-11-04 23:17:00,
2013-11-04 15:22:00,64.2,36.7,29.91,South,179,0.0,0.0,36,0.00,CLR,,0.00,WeatherDisplay:10.37,2013-11-04 23:22:00,
2013-11-04 15:27:00,64.1,36.6,29.91,South,179,0.0,0.0,36,0.00,CLR,,0.00,WeatherDisplay:10.37,2013-11-04 23:27:00,
2013-11-04 15:32:00,64.0,35.8,29.91,WNW,296,0.0,0.0,35,0.00,CLR,,0.00,WeatherDisplay:10.37,2013-11-04 23:32:00,
2013-11-04 15:37:00,63.8,37.0,29.91,WNW,297,0.0,0.0,37,0.00,CLR,,0.00,WeatherDisplay:10.37,2013-11-04 23:37:00,
2013-11-04 15:42:00,63.7,36.2,29.91,SE,142,0.0,0.0,36,0.00,CLR,,0.00,WeatherDisplay:10.37,2013-11-04 23:42:00,
2013-11-04 15:47:00,63.5,36.7,29.91,WSW,257,1.2,1.2,37,0.00,CLR,,0.00,WeatherDisplay:10.37,2013-11-04 23:47:00,
2013-11-04 15:52:00,63.3,35.9,29.91,ESE,108,0.0,0.0,36,0.00,CLR,,0.00,WeatherDisplay:10.37,2013-11-04 23:52:00,
2013-11-04 15:57:00,63.0,37.0,29.91,ESE,108,0.0,0.0,38,0.00,CLR,,0.00,WeatherDisplay:10.37,2013-11-04 23:57:00,
2013-11-04 16:02:00,62.8,36.8,29.91,East,99,1.2,1.2,38,0.00,CLR,,0.00,WeatherDisplay:10.37,2013-11-05 00:02:00,
2013-11-04 16:07:00,62.4,36.4,29.91,SSE,155,1.2,0.0,38,0.00,CLR,,0.00,WeatherDisplay:10.37,2013-11-05 00:07:00,
2013-11-04 16:12:00,62.1,36.2,29.92,SE,145,1.2,1.2,38,0.00,CLR,,0.00,WeatherDisplay:10.37,2013-11-05 00:12:00,
2013-11-04 16:17:00,61.8,36.6,29.92,SE,145,0.0,0.0,39,0.00,CLR,,0.00,WeatherDisplay:10.37,2013-11-05 00:17:00,
2013-11-04 16:22:00,61.5,36.3,29.92,West,263,1.2,1.2,39,0.00,CLR,,0.00,WeatherDisplay:10.37,2013-11-05 00:22:00,
2013-11-04 16:27:00,61.2,36.7,29.92,West,263,1.2,1.2,40,0.00,CLR,,0.00,WeatherDisplay:10.37,2013-11-05 00:27:00,
2013-11-04 16:32:00,61.0,37.1,29.92,WSW,249,1.2,1.2,41,0.00,CLR,,0.00,WeatherDisplay:10.37,2013-11-05 00:32:00,
2013-11-04 16:37:00,60.7,37.5,29.92,West,266,0.0,0.0,42,0.00,CLR,,0.00,WeatherDisplay:10.37,2013-11-05 00:37:00,
2013-11-04 16:42:00,60.4,37.2,29.92,West,266,0.0,0.0,42,0.00,CLR,,0.00,WeatherDisplay:10.37,2013-11-05 00:42:00,
2013-11-04 16:47:00,60.0,37.4,29.92,West,266,0.0,0.0,43,0.00,CLR,,0.00,WeatherDisplay:10.37,2013-11-05 00:47:00,
2013-11-04 16:52:00,59.6,37.6,29.92,West,281,2.3,2.3,44,0.00,CLR,,0.00,WeatherDisplay:10.37,2013-11-05 00:52:00,
2013-11-04 16:57:00,59.3,37.4,29.93,West,271,1.2,1.2,44,0.00,CLR,,0.00,WeatherDisplay:10.37,2013-11-05 00:57:00,
2013-11-04 17:02:00,59.0,37.1,29.93,West,271,0.0,0.0,44,0.00,CLR,,0.00,WeatherDisplay:10.37,2013-11-05 01:02:00,
2013-11-04 17:07:00,58.6,37.9,29.93,West,275,0.0,0.0,46,0.00,CLR,,0.00,WeatherDisplay:10.37,2013-11-05 01:07:00,
2013-11-04 17:12:00,58.1,39.0,29.93,West,276,0.0,0.0,49,0.00,CLR,,0.00,WeatherDisplay:10.37,2013-11-05 01:12:00,
2013-11-04 17:17:00,57.6,38.6,29.93,West,276,0.0,0.0,49,0.00,CLR,,0.00,WeatherDisplay:10.37,2013-11-05 01:17:00,
2013-11-04 17:22:00,57.0,38.5,29.93,West,276,0.0,0.0,50,0.00,CLR,,0.00,WeatherDisplay:10.37,2013-11-05 01:22:00,
2013-11-04 17:27:00,56.5,39.1,29.94,West,276,0.0,0.0,52,0.00,CLR,,0.00,WeatherDisplay:10.37,2013-11-05 01:27:00,
2013-11-04 17:32:00,55.8,39.4,29.94,West,275,0.0,0.0,54,0.00,CLR,,0.00,WeatherDisplay:10.37,2013-11-05 01:32:00,
2013-11-04 17:37:00,55.2,38.4,29.95,West,275,0.0,0.0,53,0.00,CLR,,0.00,WeatherDisplay:10.37,2013-11-05 01:37:00,
2013-11-04 17:42:00,55.0,39.1,29.95,West,276,0.0,0.0,55,0.00,CLR,,0.00,WeatherDisplay:10.37,2013-11-05 01:42:00,
2013-11-04 17:47:00,54.7,39.3,29.95,West,276,0.0,0.0,56,0.00,CLR,,0.00,WeatherDisplay:10.37,2013-11-05 01:47:00,
2013-11-04 17:52:00,54.3,38.9,29.95,West,276,0.0,0.0,56,0.00,CLR,,0.00,WeatherDisplay:10.37,2013-11-05 01:52:00,
2013-11-04 17:57:00,53.9,39.0,29.96,West,276,0.0,0.0,57,0.00,CLR,,0.00,WeatherDisplay:10.37,2013-11-05 01:57:00,
2013-11-04 18:02:00,53.4,38.5,29.96,West,275,0.0,0.0,57,0.00,CLR,,0.00,WeatherDisplay:10.37,2013-11-05 02:02:00,
2013-11-04 18:07:00,52.9,39.0,29.97,West,275,0.0,0.0,59,0.00,CLR,,0.00,WeatherDisplay:10.37,2013-11-05 02:07:00,
2013-11-04 18:12:00,52.5,39.4,29.97,West,277,0.0,0.0,61,0.00,CLR,,0.00,WeatherDisplay:10.37,2013-11-05 02:12:00,
2013-11-04 18:17:00,52.2,40.4,29.97,West,276,0.0,0.0,64,0.00,CLR,,0.00,WeatherDisplay:10.37,2013-11-05 02:17:00,
2013-11-04 18:22:00,51.8,40.4,29.97,West,276,0.0,0.0,65,0.00,CLR,,0.00,WeatherDisplay:10.37,2013-11-05 02:22:00,
2013-11-04 18:27:00,51.5,40.1,29.97,West,275,0.0,0.0,65,0.00,CLR,,0.00,WeatherDisplay:10.37,2013-11-05 02:27:00,
2013-11-04 18:32:00,51.2,40.6,29.97,West,276,0.0,0.0,67,0.00,CLR,,0.00,WeatherDisplay:10.37,2013-11-05 02:32:00,
2013-11-04 18:37:00,50.9,40.7,29.97,West,275,0.0,0.0,68,0.00,CLR,,0.00,WeatherDisplay:10.37,2013-11-05 02:37:00,
2013-11-04 18:42:00,50.5,40.3,29.97,West,276,0.0,0.0,68,0.00,CLR,,0.00,WeatherDisplay:10.37,2013-11-05 02:42:00,
2013-11-04 18:47:00,50.3,40.5,29.98,West,276,0.0,0.0,69,0.00,CLR,,0.00,WeatherDisplay:10.37,2013-11-05 02:47:00,
2013-11-04 18:52:00,50.1,40.7,29.98,West,275,0.0,0.0,70,0.00,CLR,,0.00,WeatherDisplay:10.37,2013-11-05 02:52:00,
2013-11-04 18:57:00,49.9,40.1,29.98,West,275,0.0,0.0,69,0.00,CLR,,0.00,WeatherDisplay:10.37,2013-11-05 02:57:00,
2013-11-04 19:02:00,49.7,40.7,29.98,West,276,0.0,0.0,71,0.00,CLR,,0.00,WeatherDisplay:10.37,2013-11-05 03:02:00,
2013-11-04 19:07:00,49.6,40.6,29.98,West,275,0.0,0.0,71,0.00,CLR,,0.00,WeatherDisplay:10.37,2013-11-05 03:07:00,
2013-11-04 19:12:00,49.5,40.8,29.98,West,276,0.0,0.0,72,0.00,CLR,,0.00,WeatherDisplay:10.37,2013-11-05 03:12:00,
2013-11-04 19:17:00,49.5,41.2,29.98,West,275,0.0,0.0,73,0.00,CLR,,0.00,WeatherDisplay:10.37,2013-11-05 03:17:00,
2013-11-04 19:22:00,49.4,41.5,29.99,West,276,0.0,0.0,74,0.00,CLR,,0.00,WeatherDisplay:10.37,2013-11-05 03:22:00,
2013-11-04 19:27:00,49.3,41.4,29.99,West,276,0.0,0.0,74,0.00,CLR,,0.00,WeatherDisplay:10.37,2013-11-05 03:27:00,
2013-11-04 19:32:00,49.1,41.2,29.99,West,276,0.0,0.0,74,0.00,CLR,,0.00,WeatherDisplay:10.37,2013-11-05 03:32:00,
2013-11-04 19:37:00,48.8,40.9,29.99,West,275,0.0,0.0,74,0.00,CLR,,0.00,WeatherDisplay:10.37,2013-11-05 03:37:00,
2013-11-04 19:42:00,48.6,41.0,29.99,West,276,0.0,0.0,75,0.00,CLR,,0.00,WeatherDisplay:10.37,2013-11-05 03:42:00,
2013-11-04 19:47:00,48.2,40.3,30.00,West,276,0.0,0.0,74,0.00,CLR,,0.00,WeatherDisplay:10.37,2013-11-05 03:47:00,
2013-11-04 19:52:00,48.0,40.1,29.99,West,276,0.0,0.0,74,0.00,CLR,,0.00,WeatherDisplay:10.37,2013-11-05 03:52:00,
2013-11-04 19:57:00,47.9,39.7,29.99,West,276,0.0,0.0,73,0.00,CLR,,0.00,WeatherDisplay:10.37,2013-11-05 03:57:00,
2013-11-04 20:03:00,47.8,39.2,29.99,West,276,0.0,0.0,72,0.00,CLR,,0.00,WeatherDisplay:10.37,2013-11-05 04:03:00,
2013-11-04 20:08:00,47.6,39.0,29.99,West,275,0.0,0.0,72,0.00,CLR,,0.00,WeatherDisplay:10.37,2013-11-05 04:08:00,
2013-11-04 20:13:00,47.5,38.9,29.99,West,276,0.0,0.0,72,0.00,CLR,,0.00,WeatherDisplay:10.37,2013-11-05 04:13:00,
2013-11-04 20:18:00,47.4,39.2,29.99,West,276,0.0,0.0,73,0.00,CLR,,0.00,WeatherDisplay:10.37,2013-11-05 04:18:00,
2013-11-04 20:23:00,47.2,39.0,30.00,West,276,0.0,0.0,73,0.00,CLR,,0.00,WeatherDisplay:10.37,2013-11-05 04:23:00,
2013-11-04 20:28:00,47.1,38.9,30.00,West,276,0.0,0.0,73,0.00,CLR,,0.00,WeatherDisplay:10.37,2013-11-05 04:28:00,
2013-11-04 20:33:00,47.0,39.1,30.00,West,276,0.0,0.0,74,0.00,CLR,,0.00,WeatherDisplay:10.37,2013-11-05 04:33:00,
2013-11-04 20:38:00,46.8,38.9,30.00,West,276,0.0,0.0,74,0.00,CLR,,0.00,WeatherDisplay:10.37,2013-11-05 04:38:00,
2013-11-04 20:43:00,46.6,38.8,30.00,West,275,0.0,0.0,74,0.00,CLR,,0.00,WeatherDisplay:10.37,2013-11-05 04:43:00,
2013-11-04 20:48:00,46.5,38.7,30.00,West,275,0.0,0.0,74,0.00,CLR,,0.00,WeatherDisplay:10.37,2013-11-05 04:48:00,
2013-11-04 20:53:00,46.3,38.8,30.00,West,275,0.0,0.0,75,0.00,CLR,,0.00,WeatherDisplay:10.37,2013-11-05 04:53:00,
2013-11-04 20:58:00,46.1,38.6,30.00,West,276,0.0,0.0,75,0.00,CLR,,0.00,WeatherDisplay:10.37,2013-11-05 04:58:00,
2013-11-04 21:01:00,46.1,38.6,30.00,West,276,0.0,0.0,75,0.00,CLR,,0.00,WeatherDisplay:10.37,2013-11-05 05:01:00,
2013-11-04 21:02:00,46.1,38.6,30.00,West,276,0.0,0.0,75,0.00,CLR,,0.00,WeatherDisplay:10.37,2013-11-05 05:02:00,
2013-11-04 21:03:00,46.1,38.6,30.00,West,275,0.0,0.0,75,0.00,CLR,,0.00,WeatherDisplay:10.37,2013-11-05 05:03:00,
2013-11-04 21:08:00,46.1,38.3,30.01,West,275,0.0,0.0,74,0.00,CLR,,0.00,WeatherDisplay:10.37,2013-11-05 05:08:00,
2013-11-04 21:13:00,46.1,38.3,30.01,West,276,0.0,0.0,74,0.00,CLR,,0.00,WeatherDisplay:10.37,2013-11-05 05:13:00,
2013-11-04 21:18:00,46.1,38.6,30.01,West,276,0.0,0.0,75,0.00,CLR,,0.00,WeatherDisplay:10.37,2013-11-05 05:18:00,
2013-11-04 21:23:00,46.2,39.1,30.01,West,276,0.0,0.0,76,0.00,CLR,,0.00,WeatherDisplay:10.37,2013-11-05 05:23:00,
2013-11-04 21:28:00,46.2,38.7,30.01,West,276,0.0,0.0,75,0.00,CLR,,0.00,WeatherDisplay:10.37,2013-11-05 05:28:00,
2013-11-04 21:33:00,46.1,39.0,30.01,West,276,0.0,0.0,76,0.00,CLR,,0.00,WeatherDisplay:10.37,2013-11-05 05:33:00,
2013-11-04 21:38:00,46.0,39.2,30.01,West,276,0.0,0.0,77,0.00,CLR,,0.00,WeatherDisplay:10.37,2013-11-05 05:38:00,
2013-11-04 21:43:00,45.9,39.1,30.01,West,276,0.0,0.0,77,0.00,CLR,,0.00,WeatherDisplay:10.37,2013-11-05 05:43:00,
2013-11-04 21:48:00,45.7,38.9,30.02,West,276,0.0,0.0,77,0.00,CLR,,0.00,WeatherDisplay:10.37,2013-11-05 05:48:00,
2013-11-04 21:53:00,45.5,38.7,30.02,West,276,0.0,0.0,77,0.00,CLR,,0.00,WeatherDisplay:10.37,2013-11-05 05:53:00,
2013-11-04 21:58:00,45.4,38.6,30.02,West,275,0.0,0.0,77,0.00,CLR,,0.00,WeatherDisplay:10.37,2013-11-05 05:58:00,
2013-11-04 22:03:00,45.3,38.8,30.02,West,276,0.0,0.0,78,0.00,CLR,,0.00,WeatherDisplay:10.37,2013-11-05 06:03:00,
2013-11-04 22:08:00,45.2,38.7,30.02,West,276,0.0,0.0,78,0.00,CLR,,0.00,WeatherDisplay:10.37,2013-11-05 06:08:00,
2013-11-04 22:13:00,45.0,38.9,30.03,West,275,0.0,0.0,79,0.00,CLR,,0.00,WeatherDisplay:10.37,2013-11-05 06:13:00,
2013-11-04 22:18:00,44.8,38.7,30.03,West,276,0.0,0.0,79,0.00,CLR,,0.00,WeatherDisplay:10.37,2013-11-05 06:18:00,
2013-11-04 22:23:00,44.7,38.6,30.03,West,276,0.0,0.0,79,0.00,CLR,,0.00,WeatherDisplay:10.37,2013-11-05 06:23:00,
2013-11-04 22:28:00,44.8,38.4,30.03,West,276,0.0,0.0,78,0.00,CLR,,0.00,WeatherDisplay:10.37,2013-11-05 06:28:00,
2013-11-04 22:33:00,44.8,38.4,30.03,West,276,0.0,0.0,78,0.00,CLR,,0.00,WeatherDisplay:10.37,2013-11-05 06:33:00,
2013-11-04 22:38:00,44.8,38.4,30.03,West,275,0.0,0.0,78,0.00,CLR,,0.00,WeatherDisplay:10.37,2013-11-05 06:38:00,
2013-11-04 22:43:00,44.7,38.3,30.03,West,275,0.0,0.0,78,0.00,CLR,,0.00,WeatherDisplay:10.37,2013-11-05 06:43:00,
2013-11-04 22:48:00,44.6,38.2,30.03,West,276,0.0,0.0,78,0.00,CLR,,0.00,WeatherDisplay:10.37,2013-11-05 06:48:00,
2013-11-04 22:53:00,44.6,38.2,30.04,West,276,0.0,0.0,78,0.00,CLR,,0.00,WeatherDisplay:10.37,2013-11-05 06:53:00,
2013-11-04 22:58:00,44.6,38.2,30.04,West,276,0.0,0.0,78,0.00,CLR,,0.00,WeatherDisplay:10.37,2013-11-05 06:58:00,
2013-11-04 23:03:00,44.6,38.2,30.04,West,276,0.0,0.0,78,0.00,CLR,,0.00,WeatherDisplay:10.37,2013-11-05 07:03:00,
2013-11-04 23:08:00,44.8,38.0,30.04,West,276,0.0,0.0,77,0.00,CLR,,0.00,WeatherDisplay:10.37,2013-11-05 07:08:00,
2013-11-04 23:13:00,45.6,38.1,30.04,West,276,0.0,0.0,75,0.00,CLR,,0.00,WeatherDisplay:10.37,2013-11-05 07:13:00,
2013-11-04 23:18:00,46.3,38.5,30.04,West,276,0.0,0.0,74,0.00,CLR,,0.00,WeatherDisplay:10.37,2013-11-05 07:18:00,
2013-11-04 23:23:00,46.6,38.4,30.04,West,275,0.0,0.0,73,0.00,CLR,,0.00,WeatherDisplay:10.37,2013-11-05 07:23:00,
2013-11-04 23:28:00,46.5,38.3,30.04,West,276,0.0,0.0,73,0.00,CLR,,0.00,WeatherDisplay:10.37,2013-11-05 07:28:00,
2013-11-04 23:33:00,46.5,38.3,30.04,West,275,0.0,0.0,73,0.00,CLR,,0.00,WeatherDisplay:10.37,2013-11-05 07:33:00,
2013-11-04 23:38:00,46.4,38.2,30.04,West,275,0.0,0.0,73,0.00,CLR,,0.00,WeatherDisplay:10.37,2013-11-05 07:38:00,
2013-11-04 23:43:00,46.2,38.0,30.04,West,275,0.0,0.0,73,0.00,CLR,,0.00,WeatherDisplay:10.37,2013-11-05 07:43:00,
2013-11-04 23:48:00,45.9,38.1,30.04,West,276,0.0,0.0,74,0.00,CLR,,0.00,WeatherDisplay:10.37,2013-11-05 07:48:00,
2013-11-04 23:53:00,45.7,38.2,30.04,West,276,0.0,0.0,75,0.00,CLR,,0.00,WeatherDisplay:10.37,2013-11-05 07:53:00,
2013-11-04 23:58:00,45.5,38.0,30.04,West,276,0.0,0.0,75,0.00,CLR,,0.00,WeatherDisplay:10.37,2013-11-05 07:58:00,